Flag for U.S.A. Weather past 2 weeks in Vincennes, Indiana, U.S.A.

Now
85 °F

Sunny.


Feels Like: 84 °F
Forecast: 66 / 85 °F
Wind: 5 mph from North

Location: Lawrenceville-Vincennes International Airport

Current Time: Aug 1, 2015 at 2:44:12 PM

Latest Report: Aug 1, 2015 at 1:53 PM


Visibility: 10 mi

Pressure: 30.03 "Hg

Humidity: 36%

Dew point: 55 °F

Location of VincennesLocation

Historic Weather in Vincennes — Graph

°F

Vincennes temperature yesterday

Maximum temperature yesterday: 90 °F (at 4:53 PM)
Minimum temperature yesterday: 67 °F (at 5:53 AM)
Average temperature yesterday: 78 °F

Past Weeks' High & Low Weather Summary

 TemperatureHumidityPressure
High93 °F (Jul 28, 4:53 PM)97% (Jul 20, 5:53 AM)30.13 "Hg (Jul 20, 5:53 AM)
Low61 °F (Jul 22, 6:53 AM)36% (Jul 22, 4:53 PM)29.76 "Hg (Jul 21, 3:53 AM)
Average78 °F75%29.95 "Hg
* Reported Jul 17 12:53 PM — Aug 1 12:53 PM, Vincennes, Weather by CustomWeather, © 2015

Note: Actual official high and low records may vary slightly from our data, if they occured in-between our weather recording intervals... More about our weather records

Advertising

Vincennes weather history for previous 24 hours

 ConditionsComfort  
Time TempWeatherWind HumidityBarometerVisibility
12:53 PM
Sat, Aug 1
85 °FSunny.8 mph37%30.04 "Hg10 mi
11:53 AM82 °FSunny.9 mph44%30.04 "Hg10 mi
10:53 AM80 °FSunny.7 mph47%30.04 "Hg10 mi
9:53 AM77 °FSunny.5 mph56%30.05 "Hg10 mi
8:53 AM73 °FSunny.5 mph66%30.03 "Hg10 mi
7:53 AM71 °FSunny.3 mph71%30.02 "Hg10 mi
6:53 AM67 °FClear.7 mph81%30.00 "Hg10 mi
5:53 AM70 °FClear.6 mph79%30.00 "Hg10 mi
4:53 AM70 °FClear.No wind87%30.00 "Hg10 mi
3:53 AM71 °FClear.6 mph90%29.99 "Hg10 mi
2:53 AM72 °FClear.5 mph87%30.00 "Hg10 mi
1:53 AM72 °FClear.No wind91%30.01 "Hg10 mi
12:53 AM72 °FPassing clouds.5 mph91%30.01 "Hg10 mi
11:53 PM
Fri, Jul 31
75 °FClear.No wind82%30.00 "Hg10 mi
10:53 PM75 °FClear.No wind85%30.00 "Hg10 mi
9:53 PM78 °FSunny.No wind74%29.98 "Hg10 mi
8:53 PM83 °FSunny.3 mph61%29.97 "Hg10 mi
7:53 PM86 °FSunny.6 mph51%29.98 "Hg10 mi
6:53 PM88 °FSunny.12 mph45%29.98 "Hg10 mi
5:53 PM89 °FSunny.10 mph43%30.00 "Hg10 mi
4:53 PM90 °FSunny.10 mph42%30.01 "Hg10 mi
3:53 PM89 °FSunny.7 mph46%30.01 "Hg10 mi
2:53 PM89 °FSunny.9 mph45%30.04 "Hg10 mi
Weather by CustomWeather, © 2015

See weather overviewHow to use our weather pages